SCP
0 0 0 0 0 0 0 0 0 0 0 0 0 0 0 0 0 0 0 0 0 0 0 0 0 0 0 0 0 0 0 0 0 0 0 0 0 0
0 0 0 0 0 0 0 0 0 0 0 0 0 0 0 0 0 0 0 0 0 0 0 0 0 0 0 0 0 0 0 0 0 0 0 0 0 0
0 0 0 0 0 0 0 0 0 0 0 0 0 0 0 0 0 0 0 0 0 0 0 0 0 0 0 0 0 0 0 0 0 0 0 0 0 0
0 0 0 0 0 0 0 0 0 0 0 0 0 0 0 0 0 0 0 0 0 0 0 0 0 0 0 0 0 0 0 0 0 0 0 0 0 0
0 0 0 0 0 0 0 0 0 0 0 0 0 0 0 0 0 0 0 0 0 0 0 0 0 0 0 0 0 0 0 0 0 0 0 0 0 0
0 0 0 0 0 0 0 0 0 0 0 0 0 0 0 0 0 0 0 0 0 0 0 0 0 0 0 0 0 0 0 0 0 0 0 0 0 0
0 0 0 0 0 0 0 0 0 0 0 0 0 0 0 0 0 0 0 0 0 0 0 0 0 0 0 0 0 0 0 0 0 0 0 0 0 0
0 0 0 0 0 0 0 0 0 0 0 0 0 0 0 0 0 0 0 0 0 0 0 0 0 0 0 0 0 0 0 0 0 0 0 0 0 0
0 0 0 0 0 0 0 0 0 0 0 0 0 0 0 0 0 0 0 0 0 0 0 0 0 0 0 0 0 0 0 0 0 0 0 0 0 0
0 0 0 0 0 0 0 0 0 0 0 0 0 0 0 0 0 0 0 0 0 0 0 0 0 0 0 0 0 0 0 0 0 0 0 0 0 0
0 0 0 0 0 0 0 0 0 0 0 0 0 0 0 0 0 0 0 0 0 0 0 0 0 0 0 0 0 0 0 0 0 0 0 0 0 0
0 0 0 0 0 0 0 0 0 0 0 0 0 0 0 0 0 0 0 0 0 0 0 0 0 0 0 0 0 0 0 0 0 0 0 0 0 0
0 0 0 0 0 0 0 0 0 0 0 0 0 0 0 0 0 0 0 0 0 0 0 0 0 0 0 0 0 0 0 0 0 0 0 0 0 0
0 0 0 0 0 0 0 0 0 0 0 0 0 0 0 0 0 0 0 0 0 0 0 0 0 0 0 0 0 0 0 0 0 0 0 0 0 0
0 0 0 0 0 0 0 0 0 0 0 0 0 0 0 0 0 0 0 0 0 0 0 0 0 0 0 0 0 0 0 0 0 0 0 0 0 0
0 0 0 0 0 0 0 0 0 0 0 0 0 0 0 0 0 0 0 0 0 0 0 0 0 0 0 0 0 0 0 0 0 0 0 0 0 0
0 0 0 0 0 0 0 0 0 0 0 0 0 0 0 0 0 0 0 0 0 0 0 0 0 0 0 0 0 0 0 0 0 0 0 0 0 0
0 0 0 0 0 0 0 0 0 0 0 0 0 0 0 0 0 0 0 0 0 0 0 0 0 0 0 0 0 0 0 0 0 0 0 0 0 0
0 0 0 0 0 0 0 0 0 0 0 0 0 0 0 0 0 0 0 0 0 0 0 0 0 0 0 0 0 0 0 0 0 0 0 0 0 0
0 0 0 0 0 0 0 0 0 0 0 0 0 0 0 0 0 0 0 0 0 0 0 0 0 0 0 0 0 0 0 0 0 0 0 0 0 0
0 0 0 0 0 0 0 0 0 0 0 0 0 0 0 0 0 0 0 0 0 0 0 0 0 0 0 0 0 0 0 0 0 0 0 0 0 0
0 0 0 0 0 0 0 0 0 0 0 0 0 0 0 0 0 0 0 0 0 0 0 0 0 0 0 0 0 0 0 0 0 0 0 0 0 0
0 0 0 0 0 0 0 0 0 0 0 0 0 0 0 0 0 0 0 0 0 0 0 0 0 0 0 0 0 0 0 0 0 0 0 0 0 0
Wind_Speed
3 2 2 2 3 2 2 2 2 3 4 3 1 1 0 1 4 3 4 6 8 8 8 8 8 7 7 7 6 6 6 7 7 7 8 8 9 10
2 3 2 2 2 2 2 2 3 3 4 3 2 2 2 2 3 2 3 6 7 7 8 8 7 7 7 6 6 7 7 7 7 7 8 8 8 8
2 2 2 2 1 2 2 3 3 3 5 4 2 2 2 2 2 2 2 3 4 7 8 8 8 8 8 8 7 7 7 7 8 8 8 9 9 9
2 1 2 1 2 2 2 3 3 3 3 4 2 2 2 2 1 2 2 2 3 6 8 9 9 9 9 8 8 8 8 8 8 8 8 9 9 9
2 2 2 1 2 2 3 3 3 3 2 2 2 2 1 1 0 2 2 1 3 4 7 8 9 9 9 9 9 9 9 9 8 8 8 9 9 10
1 1 1 1 1 2 2 2 3 2 2 1 1 2 1 1 1 1 2 2 2 2 3 4 6 9 9 9 10 10 10 10 10 9 9 9 9 9
1 1 2 1 1 2 2 2 2 2 2 1 1 1 1 1 1 2 2 2 2 2 1 2 3 4 5 8 10 11 11 11 10 10 10 10 10 10
1 1 2 2 1 2 3 3 3 2 2 2 1 2 2 1 1 1 2 2 2 1 1 2 2 3 4 5 9 12 13 12 12 11 11 11 10 10
2 2 2 2 1 1 2 3 3 5 5 3 2 3 3 2 2 2 2 2 3 2 2 3 3 3 3 4 9 12 13 13 13 12 12 11 11 11
2 2 2 1 2 2 2 2 2 2 3 4 4 4 3 2 2 3 3 4 4 3 3 3 3 3 3 3 7 10 12 12 12 13 12 12 12 11
1 2 2 1 2 3 2 2 2 3 3 2 4 4 5 6 4 2 3 3 4 3 2 3 3 3 3 3 5 10 11 12 12 12 13 12 12 10
1 1 1 0 2 2 1 2 3 3 3 3 3 5 6 7 9 6 5 4 3 3 3 2 3 2 2 3 3 4 6 9 12 12 13 13 11 7
2 2 1 1 2 3 2 2 4 4 3 4 5 4 4 4 4 5 5 4 4 4 3 2 2 2 2 3 2 4 5 5 6 7 11 14 14 11
3 2 2 3 4 5 4 5 6 4 3 4 4 4 3 3 3 4 4 5 5 6 5 4 3 3 4 4 4 3 4 5 5 6 6 10 13 15
3 4 6 7 6 5 7 8 6 4 4 4 4 4 3 3 3 3 4 5 6 7 6 6 6 5 5 5 5 4 3 4 5 5 5 6 6 7
3 4 6 8 7 6 6 5 4 4 4 4 4 3 3 3 3 3 3 3 4 4 5 6 7 7 6 6 5 5 4 3 3 4 4 4 5 6
4 3 4 4 3 2 2 2 2 2 3 3 3 3 3 3 3 3 2 3 3 4 4 4 5 5 7 6 5 6 5 4 4 4 4 4 5 6
3 3 4 4 4 3 2 2 2 2 2 3 3 3 4 4 4 3 3 3 3 4 4 4 3 3 3 4 7 6 5 5 4 4 4 5 5 5
2 3 3 3 4 4 3 2 2 2 2 3 3 3 4 4 4 4 3 3 4 4 4 3 3 3 4 5 5 6 5 4 3 3 4 4 4 4
3 3 3 3 3 3 3 3 3 3 3 3 3 3 4 4 4 4 4 4 5 5 5 4 3 3 4 5 4 4 6 5 3 3 3 2 2 3
3 3 3 3 3 3 3 3 3 3 3 3 3 4 4 4 4 5 4 6 6 5 5 5 5 5 3 2 3 4 3 5 5 4 3 3 3 2
3 3 3 3 3 4 4 4 4 3 4 4 4 4 4 4 4 5 5 5 5 5 6 5 4 3 2 3 5 4 3 2 3 4 4 4 3 3
3 3 3 4 4 4 4 4 5 4 4 5 5 5 5 5 5 5 5 5 5 6 6 5 4 3 3 3 4 4 4 3 1 1 2 4 6 6
Wind_Direction
243 243 244 262 263 268 267 247 255 278 279 267 265 246 193 181 186 206 194 203 205 206 213 218 217 217 219 218 214 211 211 210 211 214 219 222 225 227
241 248 250 256 274 278 274 268 251 259 274 277 271 255 259 253 214 225 207 192 202 206 213 212 209 208 209 211 211 209 208 207 210 215 220 222 224 227
257 254 258 263 278 280 285 281 269 260 267 278 273 256 255 267 249 246 207 190 192 207 208 208 208 208 209 211 212 211 209 212 214 215 220 223 225 226
260 271 281 289 285 291 298 290 281 269 263 280 287 278 260 251 234 249 248 216 197 205 204 205 208 209 211 212 214 214 212 214 216 217 220 223 224 225
252 257 272 279 283 296 293 290 287 287 280 284 292 298 287 278 267 266 263 253 238 211 206 207 209 210 212 213 216 215 213 214 216 218 222 224 224 222
267 276 278 278 294 302 292 298 301 302 298 286 281 287 287 274 251 254 265 250 258 244 215 205 206 210 216 216 218 217 216 216 218 219 221 223 224 223
335 348 342 337 300 276 288 306 305 300 303 300 286 288 285 285 268 264 266 268 270 247 233 223 208 209 214 221 224 222 219 218 219 220 221 220 220 221
325 321 298 249 215 220 237 254 252 259 282 284 287 292 292 284 286 283 279 278 276 247 236 252 230 223 216 211 212 212 215 217 218 218 219 219 218 219
280 275 287 302 264 235 243 237 239 236 232 244 264 273 280 289 300 295 288 286 275 255 240 254 241 243 235 228 210 208 210 213 216 218 217 217 217 218
269 276 280 299 326 322 293 290 281 276 247 227 237 252 264 279 267 265 266 273 271 261 238 246 243 240 242 221 214 211 210 212 216 217 217 217 218 219
302 315 296 312 352 341 310 303 301 301 314 279 249 256 260 264 260 262 263 265 276 270 241 242 253 250 242 231 224 216 214 215 216 217 216 216 215 215
313 318 357 359 351 356 317 305 299 301 318 314 288 264 251 250 242 228 237 253 266 274 257 244 257 265 269 246 220 206 216 225 223 220 218 216 209 207
310 318 342 351 323 320 295 274 270 287 294 280 274 262 250 243 237 228 224 232 250 259 261 260 273 268 258 268 253 222 209 213 213 222 222 218 210 202
301 306 302 300 303 293 278 264 275 288 274 273 273 269 260 253 247 247 242 236 236 243 251 252 257 258 265 271 264 245 230 218 208 208 208 209 213 215
296 297 294 289 292 278 258 263 270 266 264 268 277 280 272 266 257 252 259 249 249 251 250 241 242 247 247 257 262 254 253 242 217 211 205 200 201 199
316 311 301 285 275 268 270 257 240 248 258 269 277 280 283 281 271 261 261 261 260 262 251 241 241 240 246 250 255 259 246 242 230 221 218 209 200 202
324 299 293 299 294 276 270 267 259 257 261 265 273 283 284 278 273 274 266 264 267 274 274 261 245 236 233 237 249 251 250 245 232 221 218 220 218 210
321 296 305 307 305 307 302 303 310 310 306 306 306 304 302 296 290 284 276 268 270 273 273 267 260 263 263 250 233 244 248 247 239 224 217 221 227 218
292 291 304 314 321 328 329 329 328 321 317 315 310 307 311 313 310 306 300 291 285 282 276 268 264 256 271 278 267 232 236 245 240 239 232 224 221 215
284 294 305 314 324 326 323 319 317 318 320 317 314 314 311 310 310 308 307 307 301 297 290 279 262 251 256 265 270 266 237 232 226 229 237 236 236 214
310 315 321 330 330 323 318 320 321 319 326 325 322 322 321 319 314 314 309 306 300 296 297 292 274 253 248 261 271 269 263 235 221 211 211 222 235 234
321 327 331 338 333 329 331 336 334 335 343 340 330 322 314 305 307 310 308 307 302 297 296 295 295 280 257 255 268 271 270 262 235 228 233 219 215 214
336 336 338 345 345 340 339 338 342 346 348 339 331 326 321 317 309 303 303 305 311 312 309 306 305 297 282 263 263 264 264 259 247 263 280 258 229 222